星链-3506 (STARLINK-3506 )

导读

STARLINK-3506是美国太空探索技术公司(SpaceX)“星链”星座的一员,于2022年2月21日发射升空,归入近地轨道的卫星组网,承担全球卫星互联网通信服务任务,为全球偏远、信号覆盖薄弱区域提供网络接入服务,助力拓展卫星通信覆盖范围,完善星链星座的通信网络布局。

基本信息
目录编号:
51751
目录名称:
STARLINK-3506
国际标识:
2022-016AP
轨道中心:
EARTH
卫星名称:
星链-3506
卫星全名:
星链-3506 (STARLINK-3506 )
卫星状态:
在轨 (已飞行1577 天)
发射日期:
2022-02-21 UTC
国别 :
美国 (US)
星等 :
--
轨道信息
数据来源 国际轨道数据
星历时间: 2026-06-17T19:17:24+0800
6小时前
查看轨道信息
半长轴: 6917.867km
偏心率: 0.0001172
轨道倾角: 53.160°
近地点辐角 86.397°
升交点赤经 221.100°
平近点角 273.716°
近地点: 538.919km
远地点: 540.541km
周期: 95.437分钟
每日圈数: 15.088445
详细信息
固有亮度:
5
最大亮度:
2.5
卫星平台:
Starlink v1.5
覆盖范围:
全球
运营商:
太空探索技术公司
运营商所在国:
美国
制造商(研发单位):
太空探索技术公司
制造商所在国:
美国
使用方式:
暂无
卫星简介
星链(Starlink)计划是由太空探索技术公司(SpaceX)提出的一个巨型低轨卫星互联网星座项目,计划在2019年至2024年间在太空搭建由约1.2万颗卫星组成的“星链”网络,其中1584颗将部署在地球上空550千米处的近地轨道,并从2020年开始工作。该卫星仍在工作。
2D轨道图
3D轨道图
轨道高度分析图
轨道倾角分析图
轨道综合分析图
查看轨道综合分析图